Météo par heure à Abay (Maktaaralskiy rayon)

Ce jour, 3 Décembre, Jeudi

Heure Température Précipitation Vent Pression Humidité
00:00 +6°C° 0 mm 1 m/s 745 mmHg 59%
01:00 +6°C° 0 mm 1 m/s 745 mmHg 60%
02:00 +5°C° 0 mm 1 m/s 745 mmHg 61%
03:00 +4°C° 0 mm 2 m/s 746 mmHg 62%
04:00 +4°C° 0 mm 2 m/s 746 mmHg 63%
05:00 +3°C° 0 mm 2 m/s 746 mmHg 63%
06:00 +3°C° 0 mm 2 m/s 746 mmHg 63%
07:00 +2°C° 0 mm 2 m/s 746 mmHg 64%
08:00 +2°C° 0 mm 2 m/s 746 mmHg 64%
09:00 +3°C° 0 mm 2 m/s 746 mmHg 60%
10:00 +4°C° 0 mm 2 m/s 746 mmHg 55%
11:00 +5°C° 0 mm 2 m/s 746 mmHg 51%
12:00 +6°C° 0 mm 2 m/s 746 mmHg 49%
13:00 +7°C° 0 mm 2 m/s 746 mmHg 47%
14:00 +7°C° 0 mm 2 m/s 746 mmHg 46%
15:00 +7°C° 0 mm 2 m/s 746 mmHg 48%
16:00 +5°C° 0 mm 3 m/s 746 mmHg 50%
17:00 +4°C° 0 mm 3 m/s 746 mmHg 52%
18:00 +3°C° 0 mm 3 m/s 746 mmHg 53%
19:00 +3°C° 0 mm 3 m/s 746 mmHg 55%
20:00 +2°C° 0 mm 3 m/s 746 mmHg 57%
21:00 +2°C° 0 mm 3 m/s 746 mmHg 57%
22:00 +1°C° 0 mm 3 m/s 746 mmHg 57%
23:00 +1°C° 0 mm 3 m/s 746 mmHg 57%

Demain, 4 Décembre, Vendredi

Heure Température Précipitation Vent Pression Humidité
00:00 0°C° 0 mm 3 m/s 746 mmHg 57%
01:00 -1°C° 0 mm 2 m/s 746 mmHg 57%
02:00 -1°C° 0 mm 2 m/s 746 mmHg 56%
03:00 -2°C° 0 mm 2 m/s 746 mmHg 57%
04:00 -2°C° 0 mm 2 m/s 746 mmHg 57%
05:00 -2°C° 0 mm 2 m/s 746 mmHg 57%
06:00 -3°C° 0 mm 2 m/s 747 mmHg 58%
07:00 -3°C° 0 mm 2 m/s 747 mmHg 58%
08:00 -4°C° 0 mm 2 m/s 747 mmHg 59%
09:00 -2°C° 0 mm 2 m/s 747 mmHg 54%
10:00 -1°C° 0 mm 2 m/s 747 mmHg 49%
11:00 +1°C° 0 mm 2 m/s 747 mmHg 45%
12:00 +2°C° 0 mm 2 m/s 747 mmHg 44%
13:00 +3°C° 0 mm 2 m/s 747 mmHg 43%
14:00 +3°C° 0 mm 2 m/s 747 mmHg 42%
15:00 +3°C° 0 mm 2 m/s 747 mmHg 43%
16:00 +2°C° 0 mm 2 m/s 747 mmHg 45%
17:00 +1°C° 0 mm 2 m/s 747 mmHg 47%
18:00 +1°C° 0 mm 2 m/s 747 mmHg 47%
19:00 -1°C° 0 mm 2 m/s 748 mmHg 47%
20:00 -2°C° 0 mm 2 m/s 748 mmHg 47%
21:00 -2°C° 0 mm 2 m/s 748 mmHg 47%
22:00 -3°C° 0 mm 2 m/s 748 mmHg 48%
23:00 -3°C° 0 mm 2 m/s 747 mmHg 49%

Après-demain, 5 Décembre, Samedi

Heure Température Précipitation Vent Pression Humidité
00:00 -3°C° 0 mm 2 m/s 748 mmHg 50%
01:00 -2°C° 0 mm 1 m/s 748 mmHg 51%
02:00 -2°C° 0 mm 1 m/s 748 mmHg 52%
03:00 -2°C° 0 mm 1 m/s 748 mmHg 52%
04:00 -2°C° 0 mm 1 m/s 748 mmHg 52%
05:00 -2°C° 0 mm 1 m/s 748 mmHg 53%
06:00 -3°C° 0 mm 1 m/s 748 mmHg 53%
07:00 -3°C° 0 mm 1 m/s 748 mmHg 53%
08:00 -3°C° 0 mm 1 m/s 748 mmHg 53%
09:00 -1°C° 0 mm 1 m/s 748 mmHg 48%
10:00 +1°C° 0 mm 1 m/s 748 mmHg 43%
11:00 +2°C° 0 mm 1 m/s 747 mmHg 39%
12:00 +3°C° 0 mm 1 m/s 747 mmHg 38%
13:00 +4°C° 0 mm 1 m/s 747 mmHg 38%
14:00 +4°C° 0 mm 1 m/s 746 mmHg 37%
15:00 +4°C° 0 mm 1 m/s 746 mmHg 40%
16:00 +2°C° 0 mm 2 m/s 747 mmHg 43%
17:00 +1°C° 0 mm 2 m/s 747 mmHg 46%
18:00 -1°C° 0 mm 2 m/s 747 mmHg 48%
19:00 -1°C° 0 mm 2 m/s 747 mmHg 50%
20:00 -2°C° 0 mm 3 m/s 747 mmHg 52%
21:00 -2°C° 0 mm 2 m/s 747 mmHg 53%
22:00 -3°C° 0 mm 2 m/s 747 mmHg 55%
23:00 -3°C° 0 mm 2 m/s 747 mmHg 56%

6 Décembre, Dimanche

Heure Température Précipitation Vent Pression Humidité
00:00 -3°C° 0 mm 2 m/s 747 mmHg 56%
01:00 -3°C° 0 mm 2 m/s 747 mmHg 57%
02:00 -1°C° 0 mm 1 m/s 747 mmHg 57%
03:00 -4°C° 0 mm 2 m/s 747 mmHg 58%
04:00 -4°C° 0 mm 2 m/s 747 mmHg 59%
05:00 -4°C° 0 mm 2 m/s 747 mmHg 59%
06:00 -4°C° 0 mm 2 m/s 747 mmHg 59%
07:00 -2°C° 0 mm 1 m/s 747 mmHg 59%
08:00 -2°C° 0 mm 1 m/s 748 mmHg 59%
09:00 0°C° 0 mm 1 m/s 747 mmHg 54%
10:00 +1°C° 0 mm 1 m/s 747 mmHg 49%
11:00 +3°C° 0 mm 1 m/s 747 mmHg 44%
12:00 +4°C° 0 mm 1 m/s 747 mmHg 43%
13:00 +5°C° 0 mm 1 m/s 747 mmHg 42%
14:00 +6°C° 0 mm 1 m/s 746 mmHg 41%
15:00 +4°C° 0 mm 2 m/s 746 mmHg 44%
16:00 +3°C° 0 mm 2 m/s 746 mmHg 47%
17:00 +3°C° 0 mm 2 m/s 746 mmHg 49%
18:00 +2°C° 0 mm 2 m/s 746 mmHg 52%
19:00 +1°C° 0 mm 2 m/s 746 mmHg 55%
20:00 0°C° 0 mm 3 m/s 746 mmHg 58%
21:00 -1°C° 0 mm 2 m/s 745 mmHg 60%
22:00 -1°C° 0 mm 2 m/s 745 mmHg 62%
23:00 -1°C° 0 mm 2 m/s 745 mmHg 64%

7 Décembre, Lundi

Heure Température Précipitation Vent Pression Humidité
00:00 -1°C° 0 mm 2 m/s 745 mmHg 64%
01:00 -1°C° 0 mm 2 m/s 744 mmHg 64%
02:00 -1°C° 0 mm 2 m/s 744 mmHg 64%
03:00 -1°C° 0 mm 2 m/s 744 mmHg 64%
04:00 -1°C° 0 mm 2 m/s 743 mmHg 64%
05:00 -1°C° 0 mm 2 m/s 743 mmHg 64%
06:00 -2°C° 0 mm 2 m/s 743 mmHg 64%
07:00 -2°C° 0 mm 2 m/s 743 mmHg 64%
08:00 -2°C° 0 mm 2 m/s 743 mmHg 65%
09:00 -1°C° 0 mm 2 m/s 743 mmHg 63%
10:00 -1°C° 0 mm 2 m/s 744 mmHg 61%
11:00 +1°C° 0 mm 2 m/s 744 mmHg 59%
12:00 +1°C° 0 mm 2 m/s 744 mmHg 61%
13:00 +1°C° 0 mm 2 m/s 744 mmHg 63%
14:00 +2°C° 0 mm 2 m/s 744 mmHg 64%
15:00 +1°C° 0.6 mm 2 m/s 744 mmHg 74%
16:00 -1°C° 0.6 mm 2 m/s 744 mmHg 85%
17:00 -2°C° 0.6 mm 2 m/s 745 mmHg 95%
18:00 -2°C° 0.7 mm 2 m/s 745 mmHg 94%
19:00 -2°C° 0.7 mm 2 m/s 746 mmHg 93%
20:00 -2°C° 0.7 mm 2 m/s 746 mmHg 92%
21:00 -3°C° 0.4 mm 2 m/s 747 mmHg 90%
22:00 -3°C° 0.4 mm 2 m/s 747 mmHg 87%
23:00 -3°C° 0.4 mm 2 m/s 747 mmHg 85%

8 Décembre, Mardi

Heure Température Précipitation Vent Pression Humidité
00:00 -3°C° 0.1 mm 2 m/s 748 mmHg 81%
01:00 -4°C° 0.1 mm 2 m/s 748 mmHg 77%
02:00 -4°C° 0.1 mm 2 m/s 748 mmHg 73%
03:00 -5°C° 0 mm 2 m/s 748 mmHg 72%
04:00 -5°C° 0 mm 2 m/s 748 mmHg 71%
05:00 -5°C° 0 mm 2 m/s 748 mmHg 70%
06:00 -6°C° 0 mm 2 m/s 748 mmHg 70%
07:00 -6°C° 0 mm 2 m/s 748 mmHg 70%
08:00 -6°C° 0 mm 2 m/s 749 mmHg 70%
09:00 -6°C° 0 mm 2 m/s 749 mmHg 66%
10:00 -5°C° 0 mm 2 m/s 749 mmHg 63%
11:00 -2°C° 0 mm 1 m/s 749 mmHg 59%
12:00 -2°C° 0 mm 1 m/s 749 mmHg 58%
13:00 -1°C° 0 mm 1 m/s 749 mmHg 56%
14:00 -1°C° 0 mm 1 m/s 749 mmHg 55%
15:00 -1°C° 0 mm 1 m/s 749 mmHg 58%
16:00 -2°C° 0 mm 1 m/s 750 mmHg 61%
17:00 -2°C° 0 mm 1 m/s 750 mmHg 64%
18:00 -3°C° 0 mm 1 m/s 750 mmHg 65%
19:00 -3°C° 0 mm 1 m/s 751 mmHg 66%
20:00 -6°C° 0 mm 2 m/s 751 mmHg 67%
21:00 -6°C° 0 mm 2 m/s 751 mmHg 68%
22:00 -6°C° 0 mm 2 m/s 751 mmHg 69%
23:00 -6°C° 0 mm 2 m/s 751 mmHg 70%
Voir plus

Nous avons besoin de votre consentement

Meteoprog et ses fournisseurs de services peuvent stocker et accéder à des données personnelles telles que des cookies, des identifiants d'appareils ou d'autres technologies similaires sur votre appareil et traiter ces données pour personnaliser le contenu et les publicités, ainsi que pour fournir des fonctionnalités de médias sociaux et analyser le trafic.

  • Stocker et/ou accéder à des informations sur votre appareil

    Des cookies, des identifiants d'appareils ou d'autres informations peuvent être stockés ou accessibles sur votre appareil aux fins indiquées ci-dessus.

  • Annonces et contenus personnalisés, mesure des annonces et des contenus, connaissance de l'audience et développement de produits

    Les annonces et le contenu peuvent être personnalisés en fonction d'un profil. D'autres données peuvent être ajoutées pour mieux personnaliser les annonces et le contenu. Les performances des publicités et du contenu peuvent être mesurées. Il est possible d'obtenir des informations sur le public qui a vu les publicités et le contenu. Ces données peuvent être utilisées pour développer ou améliorer l'expérience de l'utilisateur, les systèmes et les logiciels.

En cliquant sur "J'accepte", vous autorisez l'utilisation de cookies, des identifiants d'appareils, des balises web ou d'autres technologies similaires. Vos paramètres peuvent être modifiés dans le navigateur de votre appareil.

Dans certains cas, des intérêts légitimes peuvent être invoqués plutôt qu'un consentement. Vous pouvez en savoir plus à ce sujet dans notre Politique de confidentialité et de cookies.